TimeEST,TemperatureF,Dew PointF,Humidity,Sea Level PressureIn,VisibilityMPH,Wind Direction,Wind SpeedMPH,Gust SpeedMPH,PrecipitationIn,Events,Conditions,WindDirDegrees,DateUTC
12:05 AM,39.2,35.6,87,30.40,4.0,ENE,10.4,-,N/A,,Overcast,70,2006-12-31 05:05:00
12:53 AM,37.9,35.1,89,30.40,4.0,NE,10.4,-,N/A,,Overcast,50,2006-12-31 05:53:00
1:53 AM,37.9,35.1,89,30.40,4.0,SE,3.5,-,N/A,,Overcast,140,2006-12-31 06:53:00
2:53 AM,37.9,35.1,89,30.39,4.0,SE,6.9,-,N/A,,Overcast,140,2006-12-31 07:53:00
3:53 AM,37.9,35.1,89,30.35,4.0,ESE,5.8,-,N/A,,Overcast,110,2006-12-31 08:53:00
4:53 AM,37.9,35.1,89,30.32,5.0,SE,9.2,-,N/A,,Overcast,130,2006-12-31 09:53:00
5:53 AM,39.0,35.1,86,30.31,4.0,ESE,6.9,-,N/A,,Overcast,120,2006-12-31 10:53:00
6:53 AM,39.9,36.0,86,30.29,4.0,SE,6.9,-,N/A,,Scattered Clouds,130,2006-12-31 11:53:00
7:53 AM,39.9,36.0,86,30.25,4.0,ENE,3.5,-,N/A,,Clear,70,2006-12-31 12:53:00
8:53 AM,43.0,37.0,80,30.23,4.0,Variable,3.5,-,N/A,,Haze,0,2006-12-31 13:53:00
9:53 AM,45.0,37.0,74,30.18,5.0,East,8.1,-,N/A,,Haze,90,2006-12-31 14:53:00
10:53 AM,46.9,36.0,66,30.14,7.0,SE,11.5,18.4,0.00,,Overcast,130,2006-12-31 15:53:00
11:53 AM,46.9,36.0,66,30.07,7.0,SE,13.8,24.2,N/A,,Mostly Cloudy,140,2006-12-31 16:53:00
12:53 PM,46.9,39.0,74,30.02,5.0,SSE,12.7,20.7,0.01,Rain,Light Rain,150,2006-12-31 17:53:00
1:53 PM,48.0,41.0,77,29.97,5.0,SSE,12.7,-,0.02,Rain,Light Rain,150,2006-12-31 18:53:00
2:53 PM,48.9,43.0,80,29.93,5.0,SSE,17.3,24.2,0.01,Rain,Light Rain,150,2006-12-31 19:53:00
3:53 PM,48.9,44.1,83,29.89,5.0,SE,16.1,23.0,0.03,Rain,Light Rain,140,2006-12-31 20:53:00
4:53 PM,51.1,44.1,77,29.85,7.0,SSE,16.1,24.2,0.01,,Mostly Cloudy,150,2006-12-31 21:53:00
5:53 PM,53.1,45.0,74,29.80,10.0,SSE,16.1,25.3,0.00,,Mostly Cloudy,150,2006-12-31 22:53:00
6:53 PM,54.0,46.0,75,29.76,10.0,SSE,19.6,26.5,0.00,,Mostly Cloudy,150,2006-12-31 23:53:00
7:53 PM,55.0,48.0,77,29.71,10.0,SSE,16.1,-,0.00,Rain,Light Rain,150,2007-01-01 00:53:00
8:53 PM,55.9,51.1,84,29.68,6.0,SSE,17.3,23.0,0.03,Rain,Light Rain,160,2007-01-01 01:53:00
9:53 PM,57.0,52.0,83,29.70,10.0,South,17.3,-,0.01,,Overcast,170,2007-01-01 02:53:00
10:53 PM,57.0,44.1,62,29.73,10.0,SSW,19.6,32.2,0.00,,Mostly Cloudy,200,2007-01-01 03:53:00
11:53 PM,54.0,45.0,72,29.74,10.0,SSW,13.8,-,N/A,,Scattered Clouds,200,2007-01-01 04:53:00